Syracuse, NY

5:53 AM EST on February 12, 2016 (GMT -0500)
Syracuse Hancock International

Weather History for KSYR - April, 2011

Change the Weather History Date:

Saturday, April 2, 2011

  Actual Average Record
Temperature  
Mean Temperature 44 °F 41 °F  
Max Temperature 54 °F 51 °F 87 °F (2010)
Min Temperature 34 °F 32 °F 16 °F (1911)
Degree Days  
Heating Degree Days 21 24  
Month to date heating degree days 47 48  
Since 1 July heating degree days 6015 5836  
Cooling Degree Days 0 0  
Month to date cooling degree days 0 0  
Year to date cooling degree days 0 0  
Moisture  
Dew Point 25 °F    
Average Humidity 50    
Maximum Humidity 76    
Minimum Humidity 24    
Precipitation  
Precipitation T in 0.11 in 2.42 in (1970)
Month to date precipitation 0.10 0.22  
Year to date precipitation 7.04 7.74  
Snow  
Snow 0.00 in 0.30 in 10.50 in (2013)
Month to date snowfall 0.0 0.5  
Since 1 July snowfall 178.6 120.4  
Snow Depth 0.00 in    
Sea Level Pressure  
Sea Level Pressure 29.53 in    
Wind  
Wind Speed 14 mph (WNW)    
Max Wind Speed 28 mph    
Max Gust Speed 38 mph    
Visibility 10 miles    
Events Rain    
T = Trace of Precipitation, MM = Missing Value Source: NWS Daily Summary

Daily Weather History Graph

Daily Weather History Graph

Search for Another Location

Airport or City:

Trip Planner

Search our weather history database for the weather conditions in past years. The results will help you decide how hot, cold, wet, or windy it might be!

Date:

Astronomy

Apr. 02, 2011 Rise Set
Actual Time 6:45 AM EDT 7:31 PM EDT
Civil Twilight 6:16 AM EDT 8:00 PM EDT
Nautical Twilight 5:42 AM EDT 8:34 PM EDT
Astronomical Twilight 5:06 AM EDT 9:10 PM EDT
Moon 5:55 AM EDT (4/2) 6:58 PM EDT (4/2)
Length of Visible Light 13h 44m
Length of Day
12h 46m
Waning Crescent, 1% of the Moon is Illuminated
Apr 2
Waning Crescent
Apr 3
New
Apr 11
First Quarter
Apr 17
Full
Apr 24
Last Quarter

Hourly Weather History & Observations

Time (EDT) Temp. Windchill Dew Point Humidity Pressure Visibility Wind Dir Wind Speed Gust Speed Precip Events Conditions
12:15 AM 39.2 °F 33.0 °F 33.8 °F 81% 29.48 in 8.0 mi WNW 9.2 mph - 0.01 in Rain Light Rain
12:24 AM 39.2 °F 32.5 °F 33.8 °F 81% 29.47 in 6.0 mi West 10.4 mph - 0.02 in Rain Light Rain
12:54 AM 39.0 °F 35.7 °F 32.0 °F 76% 29.47 in 10.0 mi WNW 4.6 mph - 0.03 in Rain Light Rain
1:54 AM 39.0 °F 31.4 °F 28.9 °F 67% 29.46 in 10.0 mi WNW 12.7 mph - 0.00 in   Overcast
2:54 AM 37.9 °F 30.9 °F 28.9 °F 70% 29.46 in 10.0 mi WNW 10.4 mph - 0.00 in Rain Light Rain
3:54 AM 37.0 °F 31.6 °F 27.0 °F 67% 29.46 in 10.0 mi West 6.9 mph - 0.00 in   Overcast
4:54 AM 36.0 °F 28.5 °F 28.0 °F 73% 29.47 in 10.0 mi West 10.4 mph - N/A   Overcast
5:54 AM 35.1 °F 27.4 °F 27.0 °F 72% 29.47 in 10.0 mi West 10.4 mph - N/A   Mostly Cloudy
6:54 AM 34.0 °F 26.0 °F 27.0 °F 75% 29.49 in 10.0 mi West 10.4 mph - N/A   Scattered Clouds
7:54 AM 36.0 °F 28.5 °F 27.0 °F 70% 29.50 in 10.0 mi WNW 10.4 mph - N/A   Scattered Clouds
8:54 AM 39.9 °F 32.9 °F 28.0 °F 63% 29.51 in 10.0 mi WNW 11.5 mph - N/A   Scattered Clouds
9:54 AM 43.0 °F 36.4 °F 27.0 °F 53% 29.52 in 10.0 mi NW 12.7 mph - N/A   Scattered Clouds
10:54 AM 45.0 °F 39.3 °F 27.0 °F 49% 29.52 in 10.0 mi NW 11.5 mph - N/A   Scattered Clouds
11:54 AM 48.0 °F - 27.0 °F 44% 29.52 in 10.0 mi WNW 13.8 mph - N/A   Mostly Cloudy
12:54 PM 48.9 °F - 26.1 °F 41% 29.52 in 10.0 mi WNW 13.8 mph 20.7 mph N/A   Mostly Cloudy
1:54 PM 51.1 °F - 24.1 °F 35% 29.51 in 10.0 mi WNW 15.0 mph 25.3 mph N/A   Mostly Cloudy
2:54 PM 53.1 °F - 19.9 °F 27% 29.51 in 10.0 mi NNW 18.4 mph 27.6 mph N/A   Mostly Cloudy
3:54 PM 53.1 °F - 18.0 °F 25% 29.52 in 10.0 mi WNW 20.7 mph 29.9 mph N/A   Mostly Cloudy
4:54 PM 53.1 °F - 17.1 °F 24% 29.53 in 10.0 mi NW 18.4 mph 28.8 mph N/A   Mostly Cloudy
5:54 PM 52.0 °F - 18.0 °F 26% 29.56 in 10.0 mi NW 19.6 mph 29.9 mph N/A   Scattered Clouds
6:54 PM 50.0 °F - 18.0 °F 28% 29.58 in 10.0 mi NW 24.2 mph 31.1 mph N/A   Scattered Clouds
7:54 PM 46.9 °F - 19.9 °F 34% 29.61 in 10.0 mi NW 13.8 mph 21.9 mph N/A   Scattered Clouds
8:54 PM 46.0 °F 39.9 °F 21.9 °F 39% 29.65 in 10.0 mi NW 13.8 mph - N/A   Scattered Clouds
9:54 PM 45.0 °F 37.9 °F 23.0 °F 42% 29.68 in 10.0 mi NW 16.1 mph 23.0 mph N/A   Overcast
10:54 PM 44.1 °F 36.5 °F 23.0 °F 43% 29.70 in 10.0 mi NW 17.3 mph 23.0 mph N/A   Overcast
11:54 PM 42.1 °F 36.1 °F 25.0 °F 51% 29.72 in 10.0 mi WNW 10.4 mph - N/A   Scattered Clouds